Home   Weather   Houston   Past weeks

Flag for USA Past Weather in Houston, Texas, USA — Yesterday and Last 2 Weeks

Now
72 °F

Mostly cloudy.


Feels Like: 67 °F
Forecast: 70 / 79 °F
Wind: 12 mph from South

Location: Houston Hobby Airport

Current Time: Feb 24, 2018 at 8:11:21 am

Latest Report: Feb 24, 2018 at 6:53 am


Visibility: 8 mi

Pressure: 29.98 "Hg

Humidity: 97%

Dew Point: 71 °F

Location of HoustonLocation

Past Weather in Houston — Graph

°F

Houston Temperature Yesterday

Maximum temperature yesterday: 79 °F (at 12:53 pm)
Minimum temperature yesterday: 61 °F (at 4:53 am)
Average temperature yesterday: 71 °F

High & Low Weather Summary for the Past Weeks

 TemperatureHumidityPressure
High82 °F (Feb 16, 2:53 pm)100% (Feb 9, 8:21 pm)30.44 "Hg (Feb 9, 8:21 pm)
Low37 °F (Feb 12, 2:53 am)58% (Feb 16, 3:53 pm)29.81 "Hg (Feb 10, 4:17 pm)
Average64 °F93%30.12 "Hg
* Reported Feb 9 6:53 am — Feb 24 6:53 am, Houston. Weather by CustomWeather, © 2018

Note: Actual official high and low records may vary slightly from our data, if they occured in-between our weather recording intervals... More about our weather records

Advertising

Houston Weather History for the Previous 24 Hours

Scroll right to see more
 ConditionsComfort  
Time TempWeatherWind HumidityBarometerVisibility
6:53 am
Sat, Feb 24
72 °FMostly cloudy.12 mph97%29.98 "Hg8 mi
6:02 am72 °FOvercast.8 mph97%29.97 "Hg10 mi
5:38 am72 °FMostly cloudy.9 mph97%29.96 "Hg8 mi
4:53 am72 °FPartly cloudy.8 mph97%29.97 "Hg9 mi
3:53 am72 °FOvercast.10 mph100%29.98 "Hg8 mi
3:33 am72 °FMostly cloudy.8 mph100%29.96 "Hg8 mi
2:53 am72 °FMostly cloudy.10 mph100%29.99 "Hg8 mi
2:28 am73 °FMostly cloudy.9 mph97%29.99 "Hg8 mi
1:53 am73 °FMostly cloudy.10 mph97%30.00 "Hg8 mi
12:53 am73 °FMostly cloudy.10 mph97%30.01 "Hg8 mi
12:31 am73 °FMostly cloudy.12 mph97%30.01 "Hg8 mi
11:53 pm
Fri, Feb 23
73 °FMostly cloudy.14 mph97%30.03 "Hg10 mi
10:53 pm73 °FMostly cloudy.9 mph97%30.05 "Hg10 mi
9:53 pm72 °FMostly cloudy.9 mph100%30.06 "Hg10 mi
8:53 pm72 °FOvercast.9 mph100%30.06 "Hg10 mi
7:53 pm72 °FMostly cloudy.6 mph97%30.06 "Hg10 mi
7:40 pm72 °FMostly cloudy.9 mph97%30.06 "Hg10 mi
7:11 pm73 °FPartly cloudy.8 mph94%30.05 "Hg10 mi
6:53 pm72 °FPartly cloudy.10 mph97%30.06 "Hg10 mi
5:53 pm74 °FScattered clouds.14 mph88%30.07 "Hg10 mi
4:53 pm76 °FBroken clouds.9 mph82%30.07 "Hg10 mi
4:18 pm77 °FBroken clouds.12 mph79%30.06 "Hg10 mi
3:53 pm76 °FPartly sunny.15 mph77%30.08 "Hg10 mi
2:53 pm78 °FBroken clouds.16 mph74%30.09 "Hg10 mi
1:53 pm78 °FBroken clouds.16 mph74%30.11 "Hg10 mi
12:53 pm79 °FPartly sunny.14 mph74%30.14 "Hg10 mi
11:53 am78 °FBroken clouds.12 mph76%30.17 "Hg10 mi
11:07 am76 °FBroken clouds.15 mph82%30.17 "Hg10 mi
9:53 am75 °FPartly sunny.13 mph88%30.20 "Hg10 mi
8:53 am71 °FPartly sunny.8 mph100%30.21 "Hg10 mi
Weather by CustomWeather, © 2018

See weather overview